Location: Breckenridge
(39.4820°N, 106.0380°W)
Time: 09:36:58
(UTC-06:00)

ISS - Pass Details

Date: 30 March 2019
Orbit: 408 x 410 km, 51.6° (Epoch: 27 April)

Event Time Altitude Azimuth Distance (km) Brightness Sun altitude
Rises 19:57:11 0° 299° (WNW) 2,328 1.7 -6.8°
Reaches altitude 10° 20:00:53 10° 342° (NNW) 1,467 -0.6 -7.5°
Maximum altitude 20:01:34 10° 354° (N) 1,440 -0.8 -7.6°
Drops below altitude 10° 20:02:14 10° 6° (N) 1,467 -0.9 -7.7°
Enters shadow 20:05:53 - 49° (NE) 2,309 -0.3 -8.4°
